Mora, MN

1:51 PM CDT on July 20, 2017 (GMT -0500)
Mora Municipal

Weather History for KJMR - February, 2013

Change the Weather History Date:

Thursday, February 7, 2013

  Actual Average Record
Temperature  
Mean Temperature 22 °F -  
Max Temperature 28 °F 24 °F 51 °F (1987)
Min Temperature 17 °F -7 °F -35 °F (1971)
Degree Days  
Heating Degree Days 42    
Moisture  
Dew Point 19 °F    
Average Humidity 83    
Maximum Humidity 93    
Minimum Humidity 69    
Precipitation  
Precipitation 0.00 in - - ()
Sea Level Pressure  
Sea Level Pressure 30.15 in    
Wind  
Wind Speed 5 mph (NE)    
Max Wind Speed 10 mph    
Max Gust Speed 20 mph    
Visibility 9 miles    
Events      
Averages and records for this station are not official NWS values.
T = Trace of Precipitation, MM = Missing Value Source: NWS Daily Summary

Daily Weather History Graph

Daily Weather History Graph

Search for Another Location

Airport or City:

Trip Planner

Search our weather history database for the weather conditions in past years. The results will help you decide how hot, cold, wet, or windy it might be!

Date:

Astronomy

Feb. 07, 2013 Rise Set
Actual Time 7:26 AM CST 5:28 PM CST
Civil Twilight 6:55 AM CST 5:59 PM CST
Nautical Twilight 6:20 AM CST 6:34 PM CST
Astronomical Twilight 5:45 AM CST 7:09 PM CST
Moon 5:12 AM CST (2/7) 2:48 PM CST (2/7)
Length of Visible Light 11h 03m
Length of Day
10h 01m
Waning Crescent, 9% of the Moon is Illuminated
Feb 7
Waning Crescent
Feb 10
New
Feb 17
First Quarter
Feb 25
Full
Mar 4
Last Quarter

Hourly Weather History & Observations

Time (CST) Temp. Windchill Dew Point Humidity Pressure Visibility Wind Dir Wind Speed Gust Speed Precip Events Conditions
12:33 AM 21.2 °F 16.4 °F 19.4 °F 93% 30.04 in 4.0 mi NE 3.5 mph - N/A   Overcast
12:53 AM 21.2 °F 13.6 °F 19.4 °F 93% 30.04 in 4.0 mi NE 5.8 mph - N/A   Overcast
1:13 AM 21.2 °F 14.9 °F 19.4 °F 93% 30.04 in 3.0 mi NE 4.6 mph - N/A   Overcast
1:33 AM 21.2 °F 16.4 °F 19.4 °F 93% 30.05 in 4.0 mi NE 3.5 mph - N/A   Overcast
1:53 AM 21.2 °F 16.4 °F 19.4 °F 93% 30.05 in 5.0 mi NE 3.5 mph - N/A   Overcast
2:13 AM 21.2 °F 13.6 °F 19.4 °F 93% 30.06 in 5.0 mi NE 5.8 mph - N/A   Overcast
2:33 AM 21.2 °F 16.4 °F 19.4 °F 93% 30.06 in 5.0 mi NNE 3.5 mph - N/A   Overcast
2:53 AM 21.2 °F 14.9 °F 17.6 °F 86% 30.06 in 5.0 mi NE 4.6 mph - N/A   Overcast
3:13 AM 21.2 °F 16.4 °F 19.4 °F 93% 30.06 in 7.0 mi NNE 3.5 mph - N/A   Overcast
3:33 AM 21.2 °F 16.4 °F 17.6 °F 86% 30.06 in 7.0 mi NNE 3.5 mph - N/A   Overcast
3:53 AM 21.2 °F 14.9 °F 17.6 °F 86% 30.06 in 7.0 mi NE 4.6 mph - N/A   Overcast
4:13 AM 21.2 °F 14.9 °F 17.6 °F 86% 30.06 in 7.0 mi NE 4.6 mph - N/A   Overcast
4:33 AM 21.2 °F 16.4 °F 19.4 °F 93% 30.07 in 7.0 mi NE 3.5 mph - N/A   Overcast
4:53 AM 21.2 °F 16.4 °F 19.4 °F 93% 30.07 in 10.0 mi NNE 3.5 mph - N/A   Overcast
5:13 AM 21.2 °F - 19.4 °F 93% 30.07 in 10.0 mi Calm Calm - N/A   Overcast
5:33 AM 21.2 °F 16.4 °F 19.4 °F 93% 30.07 in 10.0 mi NNE 3.5 mph - N/A   Overcast
5:53 AM 21.2 °F 16.4 °F 19.4 °F 93% 30.07 in 10.0 mi NNE 3.5 mph - N/A   Overcast
6:13 AM 21.2 °F 14.9 °F 19.4 °F 93% 30.08 in 10.0 mi NE 4.6 mph - N/A   Overcast
6:33 AM 21.2 °F 13.6 °F 19.4 °F 93% 30.08 in 10.0 mi NE 5.8 mph - N/A   Overcast
6:53 AM 21.2 °F 13.6 °F 19.4 °F 93% 30.09 in 10.0 mi NNE 5.8 mph - N/A   Overcast
7:13 AM 21.2 °F 13.6 °F 19.4 °F 93% 30.08 in 10.0 mi NE 5.8 mph - N/A   Overcast
7:33 AM 23.0 °F 15.8 °F 19.4 °F 86% 30.10 in 10.0 mi NNE 5.8 mph - N/A   Overcast
7:53 AM 23.0 °F 17.0 °F 19.4 °F 86% 30.11 in 10.0 mi NNE 4.6 mph - N/A   Overcast
8:13 AM 23.0 °F 17.0 °F 21.2 °F 93% 30.12 in 4.0 mi NE 4.6 mph - N/A   Overcast
8:33 AM 24.8 °F 17.9 °F 21.2 °F 86% 30.12 in 7.0 mi NE 5.8 mph - N/A   Overcast
8:53 AM 24.8 °F 19.1 °F 21.2 °F 86% 30.12 in 7.0 mi NE 4.6 mph - N/A   Overcast
9:13 AM 24.8 °F 19.1 °F 21.2 °F 86% 30.13 in 10.0 mi ENE 4.6 mph - N/A   Overcast
9:33 AM 24.8 °F 17.9 °F 21.2 °F 86% 30.14 in 10.0 mi NE 5.8 mph - N/A   Overcast
10:13 AM 26.6 °F 22.6 °F 21.2 °F 80% 30.15 in 10.0 mi NE 3.5 mph - N/A   Overcast
10:33 AM 26.6 °F 17.5 °F 21.2 °F 80% 30.16 in 10.0 mi NE 9.2 mph - N/A   Overcast
10:53 AM 26.6 °F 18.2 °F 21.2 °F 80% 30.16 in 10.0 mi NE 8.1 mph - N/A   Overcast
11:13 AM 26.6 °F 17.5 °F 21.2 °F 80% 30.17 in 10.0 mi NE 9.2 mph - N/A   Overcast
11:33 AM 26.6 °F 18.2 °F 19.4 °F 74% 30.17 in 10.0 mi NE 8.1 mph - N/A   Overcast
11:53 AM 26.6 °F 19.1 °F 19.4 °F 74% 30.17 in 10.0 mi NE 6.9 mph - N/A   Overcast
12:13 PM 26.6 °F 19.1 °F 19.4 °F 74% 30.17 in 10.0 mi NNE 6.9 mph - N/A   Overcast
12:33 PM 26.6 °F 18.2 °F 19.4 °F 74% 30.16 in 10.0 mi NE 8.1 mph - N/A   Overcast
12:53 PM 28.4 °F 20.4 °F 19.4 °F 69% 30.15 in 10.0 mi NE 8.1 mph - N/A   Overcast
1:13 PM 28.4 °F 19.1 °F 19.4 °F 69% 30.15 in 10.0 mi NE 10.4 mph 19.6 mph N/A   Overcast
1:33 PM 28.4 °F 20.4 °F 19.4 °F 69% 30.14 in 10.0 mi NE 8.1 mph - N/A   Overcast
1:53 PM 28.4 °F 19.7 °F 19.4 °F 69% 30.14 in 10.0 mi NNE 9.2 mph - N/A   Overcast
2:13 PM 28.4 °F 21.2 °F 19.4 °F 69% 30.14 in 10.0 mi NNE 6.9 mph - N/A   Overcast
2:33 PM 26.6 °F 20.0 °F 19.4 °F 74% 30.15 in 10.0 mi NE 5.8 mph - N/A   Overcast
2:53 PM 26.6 °F 19.1 °F 19.4 °F 74% 30.15 in 10.0 mi NNE 6.9 mph - N/A   Overcast
3:13 PM 26.6 °F 19.1 °F 19.4 °F 74% 30.15 in 10.0 mi NNE 6.9 mph - N/A   Overcast
3:33 PM 26.6 °F 18.2 °F 19.4 °F 74% 30.16 in 10.0 mi NE 8.1 mph 18.4 mph N/A   Overcast
3:53 PM 26.6 °F 21.2 °F 19.4 °F 74% 30.17 in 10.0 mi NNE 4.6 mph - N/A   Overcast
4:13 PM 26.6 °F 21.2 °F 19.4 °F 74% 30.17 in 10.0 mi NNE 4.6 mph - N/A   Overcast
4:33 PM 26.6 °F 20.0 °F 19.4 °F 74% 30.18 in 10.0 mi NNE 5.8 mph - N/A   Overcast
4:53 PM 26.6 °F 19.1 °F 21.2 °F 80% 30.19 in 10.0 mi NNE 6.9 mph - N/A   Overcast
5:13 PM 26.6 °F 20.0 °F 21.2 °F 80% 30.19 in 10.0 mi North 5.8 mph - N/A   Overcast
5:33 PM 26.6 °F 19.1 °F 21.2 °F 80% 30.20 in 10.0 mi NE 6.9 mph - N/A   Overcast
5:53 PM 26.6 °F 21.2 °F 21.2 °F 80% 30.21 in 10.0 mi NNE 4.6 mph - N/A   Overcast
6:13 PM 26.6 °F 21.2 °F 21.2 °F 80% 30.22 in 10.0 mi NNE 4.6 mph - N/A   Overcast
6:33 PM 26.6 °F 19.1 °F 21.2 °F 80% 30.22 in 10.0 mi NNE 6.9 mph - N/A   Overcast
6:53 PM 26.6 °F 20.0 °F 21.2 °F 80% 30.23 in 10.0 mi NNE 5.8 mph - N/A   Overcast
7:13 PM 26.6 °F 21.2 °F 21.2 °F 80% 30.24 in 10.0 mi NNE 4.6 mph - N/A   Overcast
7:33 PM 24.8 °F 19.1 °F 19.4 °F 80% 30.24 in 10.0 mi NNE 4.6 mph - N/A   Overcast
7:53 PM 24.8 °F 17.9 °F 19.4 °F 80% 30.24 in 10.0 mi NE 5.8 mph - N/A   Overcast
8:13 PM 24.8 °F 19.1 °F 19.4 °F 80% 30.24 in 10.0 mi NE 4.6 mph - N/A   Overcast
8:33 PM 24.8 °F 19.1 °F 19.4 °F 80% 30.25 in 10.0 mi NNE 4.6 mph - N/A   Overcast
8:53 PM 24.8 °F 16.9 °F 19.4 °F 80% 30.25 in 10.0 mi NNE 6.9 mph - N/A   Overcast
9:13 PM 23.0 °F - 17.6 °F 80% 30.25 in 10.0 mi Calm Calm - N/A   Mostly Cloudy
9:33 PM 21.2 °F - 17.6 °F 86% 30.26 in 10.0 mi Calm Calm - N/A   Scattered Clouds
9:53 PM 21.2 °F 14.9 °F 17.6 °F 86% 30.26 in 10.0 mi NNE 4.6 mph - N/A   Scattered Clouds
10:13 PM 21.2 °F 14.9 °F 15.8 °F 80% 30.27 in 10.0 mi North 4.6 mph - N/A   Mostly Cloudy
10:33 PM 19.4 °F - 15.8 °F 86% 30.27 in 10.0 mi Calm Calm - N/A   Scattered Clouds
10:53 PM 19.4 °F - 14.0 °F 80% 30.27 in 10.0 mi Calm Calm - N/A   Clear
11:13 PM 17.6 °F - 14.0 °F 86% 30.27 in 10.0 mi Calm Calm - N/A   Clear
11:33 PM 17.6 °F - 14.0 °F 86% 30.27 in 10.0 mi Calm Calm - N/A   Clear
11:53 PM 17.6 °F - 14.0 °F 86% 30.27 in 10.0 mi Calm Calm - N/A   Clear